RH
25 31 26 13 11 14 18 22 21 28 38 42 41 34 30 33 41 40 33 25 27 29 30 30 24 19 18 18 19 18 12 9 21 26 28 28 28 26 24 23 30 36 27
22 32 34 36 36 39 48 50 48 46 50 52 56 54 58 57 53 36 26 29 33 34 31 26 16 16 19 18 17 15 10 12 25 26 25 24 25 24 21 20 20 25 40
9 17 21 27 30 23 22 30 44 50 48 50 52 53 53 51 46 23 16 15 16 17 12 10 14 13 20 20 18 14 11 11 17 13 19 20 22 23 26 23 19 22 38
12 11 11 13 21 26 22 21 24 33 38 37 35 32 33 37 33 19 15 13 10 7 7 9 8 10 18 15 12 12 12 11 13 13 14 17 18 18 22 33 32 24 24
15 12 8 10 16 24 25 22 23 25 24 27 29 27 23 19 16 13 12 11 10 6 6 6 6 8 12 11 11 12 13 13 13 12 13 14 18 23 18 22 33 33 37
18 12 17 19 12 11 13 17 17 18 19 16 17 21 21 12 7 6 6 6 7 7 6 6 6 8 10 11 12 13 14 14 14 13 13 13 14 18 18 16 26 35 35
18 40 58 62 61 43 19 14 13 12 12 12 11 11 12 10 8 7 5 5 6 6 6 6 6 8 10 11 12 13 14 14 14 13 13 12 13 13 14 14 16 22 35
17 53 55 58 63 64 60 41 16 12 11 11 10 9 9 10 8 5 5 4 5 5 6 6 6 8 10 12 13 13 13 13 13 13 13 13 14 14 14 14 15 15 25
20 39 53 45 52 61 64 60 50 21 11 10 9 9 8 7 6 5 5 5 6 6 7 7 7 7 10 12 12 12 12 12 12 12 12 12 13 14 14 16 16 17 13
29 24 46 42 36 39 54 65 65 61 40 20 13 11 10 10 9 8 6 5 6 7 7 8 8 8 8 9 10 10 10 10 10 10 10 11 12 12 14 15 16 17 17
41 28 26 33 36 38 56 67 67 68 64 58 35 19 15 13 11 9 9 7 6 7 8 8 10 10 10 10 9 9 10 10 10 10 10 11 12 12 14 14 15 16 17
39 29 30 34 38 44 58 67 70 67 68 64 62 47 23 12 11 11 10 9 9 8 7 7 8 9 10 11 12 12 12 12 12 12 13 13 13 13 14 14 15 16 17
38 44 47 47 49 61 66 70 67 66 62 58 63 64 50 31 24 17 12 12 12 10 10 10 9 9 9 9 10 11 12 12 13 13 12 13 14 14 14 15 15 16 16
60 54 52 58 64 63 58 63 59 56 52 52 58 65 66 62 52 41 36 32 19 13 12 11 10 10 11 10 10 10 10 10 11 11 12 13 14 14 16 15 15 16 16
58 57 52 53 58 57 49 57 56 51 50 55 62 64 65 66 64 61 58 55 46 36 27 15 12 12 11 11 11 12 12 12 12 12 12 12 12 12 13 14 15 15 16
53 54 58 54 42 45 48 53 54 51 50 51 63 67 67 64 64 67 68 63 56 49 39 29 25 20 15 14 14 14 14 16 17 17 16 16 15 14 14 13 13 14 14
61 67 65 51 50 51 54 56 55 53 52 53 56 59 63 69 72 65 64 65 76 74 80 75 46 35 25 18 17 18 19 19 18 17 16 16 16 16 17 18 17 16 15
63 72 68 58 57 62 64 64 62 59 57 57 57 58 58 59 60 60 60 60 60 63 70 77 82 60 31 23 21 22 23 22 19 19 22 26 29 32 33 35 30 24 21
66 75 74 57 61 71 73 74 73 71 71 70 70 71 70 68 68 66 67 71 70 67 66 65 63 49 40 37 37 33 24 24 33 42 53 57 59 61 63 64 66 65 52
71 68 64 61 67 77 79 79 80 80 76 75 69 62 59 61 65 66 64 60 55 52 50 50 52 56 61 39 28 28 34 38 48 54 64 66 54 52 52 53 56 64 75
87 74 73 67 74 81 84 85 84 74 65 58 50 47 48 45 40 36 32 26 25 34 46 54 56 47 49 59 52 52 60 67 70 71 67 57 55 50 48 48 49 50 52
93 77 75 80 90 90 89 88 80 60 54 51 53 55 44 31 27 24 19 15 15 21 22 18 17 33 42 43 49 61 65 65 62 60 58 56 56 57 56 54 52 47 40
92 81 81 91 99 100 95 83 65 60 59 61 52 46 43 40 36 29 23 18 14 10 5 4 11 17 8 18 35 41 52 64 59 64 70 65 64 61 60 59 58 55 49
84 92 95 99 100 100 100 94 74 62 66 59 41 22 15 11 10 8 7 7 6 5 10 10 5 4 13 10 8 24 36 45 51 63 64 62 68 69 67 63 62 60 54
98 97 99 100 100 96 83 83 87 86 53 19 14 18 14 12 13 10 6 6 5 5 5 5 15 16 7 6 6 7 24 43 51 53 52 51 59 74 77 70 68 65 59
99 96 99 95 97 96 96 92 51 22 22 26 25 18 17 17 15 9 9 4 3 4 5 5 6 6 6 5 4 4 10 30 57 54 48 53 64 87 87 79 78 68 65
Wind_Speed
19 21 21 20 18 15 15 20 23 24 27 32 30 20 21 23 20 20 19 21 22 22 21 20 19 17 17 17 17 20 23 23 26 26 27 28 30 33 35 37 39 42 42
17 18 18 18 18 18 19 20 23 22 14 15 13 15 15 17 18 19 20 18 18 19 19 19 18 18 17 18 19 22 22 21 23 22 22 20 22 27 29 32 34 36 39
18 17 17 18 16 14 17 18 18 19 19 14 13 11 12 14 17 18 19 19 17 18 18 19 18 18 18 20 22 22 22 19 18 20 20 18 12 11 17 20 24 27 30
20 19 21 19 18 15 15 15 15 16 16 18 17 13 12 12 15 19 18 19 18 18 17 17 18 18 19 20 21 22 22 19 19 19 18 19 17 14 7 10 15 21 24
22 22 20 20 20 20 19 20 21 20 19 19 18 17 15 13 14 16 16 17 18 17 17 17 17 18 19 19 19 20 21 19 18 17 18 19 20 20 16 9 9 14 17
22 21 20 20 20 19 20 21 23 22 23 20 19 18 16 15 16 17 16 17 18 17 18 17 17 17 18 18 18 19 19 18 17 18 18 19 21 22 23 20 16 12 14
22 17 19 21 22 22 21 20 20 18 19 19 18 18 18 17 18 19 17 17 17 18 19 19 18 18 18 19 19 20 19 18 18 18 18 20 22 24 26 27 24 17 12
16 16 20 22 23 24 24 23 21 18 19 19 17 18 17 18 19 18 16 15 17 18 19 19 20 19 19 20 19 18 20 20 20 20 20 20 22 25 25 27 28 25 15
18 16 19 22 24 25 26 25 22 21 19 18 16 16 16 16 16 17 16 16 17 18 19 19 20 21 21 21 21 21 21 22 22 23 23 24 24 25 26 27 28 28 24
21 20 20 22 25 29 30 29 27 25 23 21 20 19 19 19 18 17 17 17 18 18 19 20 20 21 21 22 22 22 22 22 23 24 25 26 27 27 27 27 27 29 27
29 23 24 27 30 32 32 32 30 27 26 25 23 21 21 21 20 19 19 19 20 20 20 20 21 22 22 23 23 23 24 24 25 26 27 27 28 29 28 29 30 29 30
29 25 27 28 29 32 34 34 32 31 28 26 24 24 22 21 21 21 21 21 21 22 22 23 23 24 24 24 25 25 26 26 26 27 28 29 30 29 28 29 30 30 31
23 24 26 29 30 33 34 31 31 29 29 28 25 24 24 23 22 22 22 22 22 23 24 24 25 25 26 26 26 26 27 28 28 29 30 30 30 31 30 29 30 32 32
23 28 29 29 31 32 31 29 29 28 27 25 25 25 26 25 24 24 24 24 25 26 26 26 26 27 27 28 28 28 29 29 29 30 30 31 31 31 31 30 29 31 31
32 30 27 27 29 30 30 29 28 28 26 24 24 24 24 25 24 25 25 25 26 27 28 28 29 29 29 30 29 29 29 30 30 30 31 31 31 31 32 33 31 32 32
34 33 32 33 32 30 28 27 26 24 24 23 22 23 23 23 23 24 26 27 27 28 28 29 29 30 30 31 30 30 29 29 30 30 30 31 31 31 31 32 32 32 32
39 36 35 34 31 28 26 24 23 22 21 21 20 20 21 22 23 25 27 28 27 29 30 31 31 29 30 32 31 31 30 30 31 30 30 29 30 31 31 30 30 31 33
42 36 34 31 27 24 22 21 20 20 20 20 20 21 21 21 23 25 26 26 28 28 28 28 29 28 28 31 30 31 30 30 28 26 26 26 27 28 29 27 26 27 30
41 34 36 36 30 24 21 21 21 21 21 21 23 24 24 24 24 25 26 27 26 26 26 26 27 28 27 30 30 29 28 25 23 23 27 31 33 33 33 32 32 31 31
39 36 36 32 29 25 24 24 25 25 25 25 26 27 28 28 28 28 28 29 29 29 29 28 29 29 29 30 28 26 25 24 27 31 32 28 25 25 26 27 29 29 30
39 42 35 29 27 26 26 27 27 27 26 26 24 24 26 28 31 31 32 32 33 34 35 36 35 35 33 31 31 32 33 32 32 29 27 25 27 26 24 26 28 29 29
43 41 34 27 27 28 28 29 29 28 27 27 27 28 27 28 30 31 32 35 39 40 40 40 38 36 37 37 35 34 33 31 31 28 29 31 29 27 27 27 27 29 31
48 38 32 26 26 30 31 31 31 31 31 31 30 32 33 35 37 39 40 41 42 44 46 48 46 43 40 40 41 40 39 37 36 35 34 34 32 31 31 30 30 31 33
38 32 30 29 29 31 32 34 34 34 33 33 33 30 28 26 27 31 36 39 42 47 49 48 46 46 44 41 40 43 44 42 41 39 38 38 36 34 33 33 33 33 33
32 31 32 32 30 29 28 30 34 35 34 30 27 28 30 33 35 38 41 43 44 47 50 50 50 49 47 43 43 43 45 45 43 43 42 40 37 36 35 34 34 34 34
35 35 35 36 34 33 28 24 28 32 30 30 34 35 38 39 41 44 46 44 47 48 47 49 52 53 50 45 43 44 44 45 45 45 43 41 37 36 34 34 33 34 34
Wind_Direction
337 340 340 339 340 338 341 337 320 305 301 300 295 284 281 276 272 272 267 270 280 282 279 276 274 272 278 281 283 293 304 305 301 294 281 278 274 269 266 265 263 260 257
335 335 341 350 352 357 359 357 344 331 332 322 313 305 287 281 280 282 284 282 281 282 279 276 274 275 279 280 295 304 306 311 308 304 301 293 279 275 270 267 263 262 260
329 333 339 345 338 357 360 350 341 334 324 316 304 297 295 290 287 286 286 286 283 279 277 274 271 276 282 282 291 300 306 309 313 324 321 321 317 299 281 272 264 260 260
336 334 331 325 317 344 342 338 337 332 325 321 316 302 290 291 296 296 293 292 291 286 278 272 277 275 282 287 290 296 303 305 308 317 320 322 325 331 326 293 274 269 264
335 330 336 328 319 323 322 320 318 315 313 311 308 310 308 303 296 294 294 290 290 286 279 278 280 279 278 285 290 297 299 306 311 317 323 328 326 324 330 327 279 277 274
335 337 340 344 343 333 321 311 308 309 304 303 302 301 301 300 302 300 293 288 286 285 278 278 277 281 284 286 289 290 296 303 307 310 317 324 323 320 321 325 322 298 264
337 343 347 348 346 341 334 328 320 318 309 307 304 295 293 294 297 300 296 288 288 280 274 273 273 275 276 280 285 289 293 296 300 305 312 316 314 314 315 316 318 317 290
332 335 345 349 346 342 337 331 328 321 307 307 306 303 297 293 295 298 294 284 280 278 277 276 276 276 278 280 282 286 289 292 296 299 303 305 304 305 307 309 311 312 309
320 314 327 335 339 340 337 333 329 324 317 310 308 304 300 301 303 302 293 288 285 285 283 281 281 281 279 279 281 285 288 291 295 297 299 299 298 298 300 302 304 305 308
323 301 305 316 323 328 329 328 324 325 316 311 308 306 304 303 302 300 292 287 285 282 282 282 280 279 278 278 279 280 283 287 290 292 295 296 295 294 294 294 295 297 299
320 305 298 305 312 316 318 319 316 316 314 313 307 304 301 300 298 295 296 292 288 286 283 282 282 280 279 280 281 282 284 286 287 288 288 288 288 290 292 291 291 291 293
315 311 309 307 307 310 312 313 311 309 307 306 306 301 298 298 299 298 294 291 289 289 289 288 285 283 282 281 281 282 283 283 284 284 285 285 285 285 285 286 287 288 289
310 314 312 308 307 310 310 307 307 305 305 303 301 299 298 297 296 298 298 297 294 290 288 287 287 286 285 284 284 284 284 284 283 284 284 284 286 286 285 287 289 289 289
321 319 308 302 300 304 307 308 309 307 304 300 294 295 297 298 300 299 298 298 296 293 292 289 287 287 286 285 284 285 285 285 285 285 286 287 287 288 289 287 287 288 287
320 317 314 314 308 307 313 312 310 310 308 304 299 296 296 299 301 300 299 298 295 294 294 293 290 289 287 285 284 283 284 284 285 286 286 287 287 287 288 290 291 289 288
323 323 317 316 318 315 313 310 309 311 310 307 301 300 302 302 300 302 303 301 300 298 297 295 294 293 291 288 287 286 285 285 286 286 287 288 289 289 290 290 291 292 290
326 321 321 320 318 314 311 308 307 307 308 309 309 305 300 299 299 303 306 306 308 308 302 297 296 296 293 289 289 289 289 288 289 289 290 291 293 293 293 294 295 294 295
322 316 317 317 312 306 304 306 309 312 312 311 311 309 309 307 307 308 309 308 308 308 310 305 298 296 295 295 295 294 295 295 294 294 294 296 296 296 297 297 298 298 299
314 311 316 313 308 301 298 301 305 307 308 309 310 311 310 308 308 310 312 312 310 307 307 308 305 300 295 292 293 294 294 293 291 292 297 297 296 296 297 297 295 293 293
313 312 312 307 297 294 297 299 303 305 305 306 307 310 312 313 313 312 311 313 314 315 314 313 309 306 301 295 293 291 290 289 287 295 296 298 304 306 310 311 308 307 302
313 316 312 302 289 287 290 294 296 296 298 301 304 308 311 312 313 314 313 313 313 311 307 304 305 307 303 295 291 290 290 289 288 289 293 294 298 300 304 308 311 309 308
312 313 305 295 284 282 284 287 289 290 293 295 295 298 301 306 310 313 314 313 311 308 305 302 299 298 295 293 291 288 285 287 286 285 283 289 291 292 294 299 301 302 301
308 306 296 285 277 280 284 285 287 289 291 296 299 300 302 307 311 312 313 312 312 310 307 302 299 294 290 288 285 283 280 279 278 279 280 281 284 287 289 292 295 296 293
302 297 286 279 276 277 280 283 286 286 290 296 300 302 307 315 322 325 324 321 319 314 304 301 299 298 292 288 281 276 276 275 275 275 273 276 278 279 280 284 291 294 293
294 285 278 277 278 275 274 278 285 292 296 299 303 311 318 323 324 322 322 318 313 309 307 301 296 296 294 291 283 277 272 270 269 268 270 273 273 272 273 278 287 294 293
292 284 271 272 274 277 283 284 288 291 296 302 308 309 315 318 317 318 318 315 312 307 304 300 299 296 294 291 284 279 275 271 269 267 269 269 269 267 267 275 286 292 291